User: anonymous   Login
Location: Unspecified
(0.0000°N, 0.0000°E)
Time: 05:30:07
(UTC+00:00)
Language:

Vela 2A - Orbit

View from above orbital plane
View from above orbital plane
View from above satellite
View from above satellite

Ground track
Ground track

The orbit data is extracted from the following two-line orbital elements,

1 00836U 64040A   15153.16066087  .00000320  00000-0  00000+0 0  9994
2 00836 081.3997 322.5208 3713571 246.4554 000.2002 00.23903052 44449
Epoch (UTC): 02 June 2015 03:51:21
Eccentricity: 0.3713571
inclination: 81.3997°
perigee height: 62566 km
apogee height: 144021 km
right ascension of ascending node: 322.5208°
argument of perigee: 246.4554°
revolutions per day: 0.23903052
mean anomaly at epoch: 0.2002°
orbit number at epoch: 4444

The dashed part of the orbit path shows where the satellite is in the earth's shadow,  

DLR